Theta_e
304 305 306 307 307 308 308 308 308 308 308 309 309 309 309 310 310 310 312 318 319 318 316 326 324 327 328 330 329 331 328 330 329 328 329 329 325 327 327 328 327 326 326 327 326
309 309 306 305 304 305 306 306 307 308 308 308 309 309 308 309 309 311 317 316 316 315 317 319 327 327 327 329 330 329 327 331 330 328 327 327 326 326 325 325 326 325 324 325 326
306 306 308 309 309 307 305 304 304 305 306 307 308 308 308 308 308 316 316 317 318 315 316 316 322 329 328 329 330 329 329 330 329 328 328 328 327 328 325 323 326 325 325 326 326
303 303 304 305 307 307 309 309 307 305 304 305 306 307 307 307 308 314 317 317 318 318 317 318 317 322 328 327 328 328 329 330 329 329 328 326 328 327 327 326 326 326 325 325 326
298 299 301 301 302 304 305 306 308 310 309 306 304 305 305 305 307 315 318 318 314 318 318 318 318 320 320 326 329 328 328 330 329 328 328 328 326 326 328 330 325 325 325 325 325
300 296 297 299 301 302 304 305 305 307 308 309 309 305 303 305 312 313 313 311 312 317 317 318 318 319 318 321 321 326 328 329 329 329 328 327 327 326 329 329 325 325 324 324 324
303 303 301 298 298 299 300 301 301 304 306 307 307 308 309 305 310 310 311 313 312 311 313 316 318 319 319 317 320 321 321 322 325 326 325 327 325 326 328 328 326 324 324 324 323
305 304 303 303 302 301 300 298 299 300 303 307 307 308 311 310 310 308 310 313 312 312 314 318 317 319 318 319 319 320 319 321 322 323 325 325 326 325 327 326 326 326 325 323 323
303 303 302 303 303 303 302 302 301 299 299 305 307 308 309 310 311 313 311 310 313 314 314 319 321 319 318 317 316 318 320 321 322 322 324 324 326 324 327 326 326 326 326 327 325
302 302 302 302 303 303 302 302 302 300 301 306 308 310 308 311 312 313 312 310 309 312 313 314 322 320 315 317 321 321 319 322 323 324 324 324 324 324 327 325 325 326 327 326 325
302 302 302 302 302 302 303 306 309 313 310 310 309 309 313 312 314 314 314 311 310 313 313 315 319 318 322 320 319 321 321 321 323 323 325 325 325 326 326 324 324 326 326 326 327
302 302 302 302 302 302 306 308 310 307 307 309 311 311 309 310 312 313 316 313 313 313 314 314 314 316 317 317 317 318 321 322 322 323 323 324 326 326 327 326 327 327 328 326 326
302 302 302 302 303 302 308 310 309 308 308 310 310 312 312 310 312 312 314 315 314 313 313 314 316 316 316 319 318 318 320 322 322 322 322 324 326 327 327 327 328 329 328 325 327
302 302 302 302 303 304 305 309 309 308 309 311 312 312 313 313 315 314 314 316 315 313 313 313 315 317 317 316 320 321 321 322 324 323 324 324 327 324 325 325 324 325 326 326 326
302 302 302 303 304 303 303 306 310 309 310 310 310 311 313 314 316 316 316 315 316 315 313 313 315 315 315 315 317 321 321 322 324 324 323 324 324 323 323 325 324 322 326 326 326
302 302 303 303 303 303 304 307 310 309 311 310 310 309 312 313 314 319 317 316 316 316 315 314 315 315 315 316 317 321 322 322 323 323 325 324 324 326 324 325 325 325 324 326 325
302 302 302 303 303 303 304 307 310 312 309 309 309 308 310 314 314 316 318 316 316 316 315 316 315 316 316 315 317 320 320 322 323 325 326 324 326 327 324 324 323 325 326 326 326
302 302 302 302 303 304 305 307 311 308 308 308 308 308 312 310 312 316 318 317 315 316 315 316 317 317 317 316 316 317 319 322 324 326 326 324 326 326 323 324 325 327 327 327 326
302 302 303 303 303 305 305 309 306 307 307 307 308 308 308 308 310 313 316 318 316 316 316 315 317 318 318 317 317 316 316 317 322 325 324 324 325 326 323 327 326 326 327 327 327
301 303 304 304 304 305 304 305 306 306 306 307 307 307 308 307 309 311 314 317 318 317 316 316 317 318 318 317 317 316 319 320 319 324 326 326 327 327 323 328 328 327 326 327 327
302 302 304 305 305 304 303 304 304 306 307 307 306 307 307 307 308 310 312 316 317 318 317 316 317 320 318 316 316 315 316 318 320 321 324 325 325 321 322 322 329 326 326 328 327
302 300 303 305 305 304 305 304 305 306 306 307 307 308 308 309 308 311 313 314 312 315 317 316 314 317 318 318 317 316 316 317 322 323 322 323 324 323 322 324 327 327 327 328 328
302 302 304 305 305 305 304 305 305 306 306 307 307 308 308 308 309 311 314 313 311 314 317 317 316 317 319 319 319 317 317 319 320 321 323 325 324 323 325 326 328 328 328 327 328
301 300 304 304 303 304 305 305 305 305 305 304 305 305 306 308 309 308 309 310 310 312 314 313 318 317 319 321 320 319 318 320 323 324 323 325 324 326 324 327 326 328 328 328 327
302 301 304 302 302 302 302 303 305 305 305 305 304 303 306 308 309 308 308 309 311 313 311 309 318 317 317 319 321 321 320 320 325 323 326 324 324 325 323 327 327 328 327 326 327
301 303 303 302 303 302 302 304 306 306 307 306 306 308 308 309 309 311 308 310 311 312 310 309 314 319 318 318 318 319 321 320 324 324 323 324 325 323 323 327 328 327 326 326 326
301 301 301 301 300 299 301 305 307 306 307 307 307 307 307 308 309 310 310 310 310 310 310 309 314 317 319 319 318 318 319 322 324 325 323 323 322 322 324 322 327 327 327 326 326
Wind_Speed
23 24 24 26 28 25 23 22 22 21 21 20 20 19 20 23 23 24 27 23 19 18 17 11 20 16 16 13 17 7 2 7 7 6 12 18 5 14 15 7 9 11 12 12 23
20 22 24 25 26 28 26 25 24 23 22 22 22 21 20 23 26 30 25 22 23 21 22 24 20 18 19 7 13 10 5 12 13 11 11 23 10 14 7 16 4 9 9 9 27
24 23 22 22 23 25 27 26 25 25 24 24 24 22 20 20 25 34 11 12 16 25 27 22 18 14 19 16 18 9 10 23 21 26 27 26 21 22 8 7 8 15 18 22 31
21 22 23 25 26 25 25 26 27 25 25 25 25 24 19 16 7 5 14 7 2 21 27 24 21 21 7 9 35 7 19 27 32 35 27 17 31 14 17 20 11 13 18 26 31
19 19 20 20 23 26 26 25 26 27 26 27 25 25 21 16 27 14 15 11 9 7 31 30 22 25 12 15 17 12 22 32 34 34 34 33 22 18 17 31 13 15 24 27 28
18 19 20 19 19 21 22 24 24 25 25 24 25 25 22 15 36 36 34 30 25 15 18 32 25 34 4 16 19 22 21 26 31 32 31 18 23 14 24 29 18 19 24 27 27
20 20 20 20 20 20 22 24 23 22 24 21 21 22 26 38 28 16 19 33 35 33 29 28 32 16 9 13 31 23 12 12 20 24 20 26 17 7 26 28 25 24 23 27 27
20 21 21 21 22 23 22 21 25 23 22 16 16 17 19 31 29 38 33 28 27 31 29 26 20 31 28 19 16 6 5 10 10 15 25 12 21 15 27 26 23 25 25 29 30
22 22 20 21 23 25 25 22 21 25 18 15 17 15 18 15 28 37 38 41 30 27 28 24 23 21 9 13 9 4 14 18 19 14 13 8 18 12 30 26 26 25 26 26 35
23 23 23 22 22 24 28 27 23 18 16 11 12 6 22 18 23 22 29 37 32 27 27 22 17 8 6 5 12 11 8 7 18 17 8 11 13 13 34 28 29 27 30 27 34
26 25 23 22 23 23 25 24 5 2 10 15 20 22 7 11 4 12 12 21 25 14 14 20 9 16 23 25 18 11 6 11 18 17 6 10 15 16 16 12 14 27 32 33 22
25 25 27 25 21 19 16 9 10 13 15 24 39 36 36 20 9 19 16 15 16 18 11 7 27 22 20 12 13 13 13 19 20 18 5 14 22 20 8 9 23 29 27 25 17
26 24 23 24 25 16 11 13 17 22 9 16 30 35 38 33 19 35 12 21 7 12 22 25 12 21 20 16 15 16 18 20 19 14 9 8 11 13 10 13 19 19 26 19 22
24 24 24 23 19 9 15 8 17 12 5 7 10 14 31 25 14 45 32 13 9 22 22 17 19 19 19 19 16 18 21 19 20 11 8 7 6 6 6 7 5 9 8 18 29
24 23 23 16 20 23 11 13 11 11 5 4 4 7 13 35 15 24 45 28 20 14 11 11 21 24 22 26 24 21 14 15 14 13 3 20 2 8 4 5 9 6 15 24 33
24 23 21 20 20 17 14 13 5 2 8 6 9 13 1 23 18 2 26 26 24 13 15 19 14 23 27 17 21 23 7 8 9 7 8 15 5 14 5 7 4 0 16 27 31
25 23 20 17 20 9 9 9 2 6 8 2 14 20 21 9 16 9 8 21 12 14 17 14 21 14 14 22 17 13 9 5 4 6 8 8 5 13 8 8 8 9 17 28 33
26 23 20 20 13 9 3 1 8 6 14 20 19 18 6 20 10 14 9 18 24 15 12 14 11 25 22 20 20 24 14 6 7 4 4 7 7 11 8 9 19 26 28 32 33
26 19 18 10 6 8 2 5 4 6 9 15 18 9 10 21 12 9 24 15 25 23 10 16 17 6 24 18 20 10 17 13 3 2 2 5 5 6 5 6 12 17 27 30 34
23 18 10 5 10 10 2 7 4 13 12 16 8 7 17 16 11 15 5 7 17 23 8 4 5 17 14 17 22 21 5 8 0 8 7 4 3 6 5 8 10 11 18 27 34
16 9 8 4 11 3 2 4 5 16 11 8 11 12 15 16 12 13 8 11 21 8 19 11 4 5 16 18 27 7 19 8 7 7 8 5 9 7 11 12 15 15 25 37 36
10 3 9 9 3 1 1 3 4 11 18 11 8 7 8 13 13 7 10 10 25 20 9 23 5 9 17 4 19 18 9 21 11 7 3 6 9 6 9 16 17 18 29 35 36
13 6 7 17 2 1 3 9 12 14 14 4 6 9 10 11 6 7 10 13 22 19 11 6 16 4 8 2 5 20 19 13 7 4 8 9 8 3 2 15 18 23 28 35 36
6 3 4 2 2 3 5 7 3 10 11 11 9 9 11 11 10 7 13 10 28 21 14 9 5 28 17 12 8 7 19 14 14 7 6 14 5 4 8 10 9 19 32 37 38
3 3 4 3 4 7 4 6 8 8 9 13 5 8 9 8 13 16 17 19 16 7 10 7 8 19 29 17 4 6 18 20 17 14 15 8 11 9 11 14 20 34 32 33 37
5 4 7 9 12 5 5 4 11 8 3 7 5 12 10 7 15 15 12 6 7 6 11 6 6 6 20 29 26 16 9 24 21 10 8 13 7 9 18 25 20 28 32 33 38
7 12 8 7 4 2 3 8 6 10 12 6 10 7 9 14 12 14 13 9 9 14 8 4 5 7 20 20 21 19 23 10 15 19 12 8 8 8 6 11 23 27 35 37 40
Wind_Direction
284 285 282 280 285 282 281 281 282 283 280 279 281 283 284 283 281 274 265 261 260 248 247 238 219 219 224 227 224 203 131 261 246 231 262 294 295 304 318 283 218 224 210 251 193
289 284 280 279 278 281 281 278 277 278 278 277 276 278 282 285 288 277 280 276 259 246 234 223 223 213 224 244 223 186 157 239 236 259 269 280 276 288 301 313 327 177 201 195 181
294 291 289 288 281 278 278 279 278 276 276 276 274 272 276 284 297 284 268 245 241 217 226 226 228 224 230 233 231 206 214 241 265 261 264 273 285 287 291 311 254 191 182 178 179
302 296 292 290 288 283 279 278 279 277 274 272 271 269 267 266 234 196 188 173 233 215 210 222 225 228 224 209 240 265 249 254 259 265 268 265 275 258 270 276 278 212 201 186 187
305 302 296 291 290 288 284 278 274 273 271 271 270 270 266 240 234 225 218 244 294 229 208 215 216 223 219 234 254 247 250 254 257 264 268 272 262 246 263 284 232 198 195 199 202
334 312 304 302 295 286 284 281 277 269 267 266 269 268 264 240 254 254 249 255 257 243 228 222 221 223 298 235 238 245 243 256 264 267 271 271 271 253 267 276 233 208 200 207 204
333 335 330 320 312 302 290 282 276 272 267 269 266 269 261 248 251 256 235 238 238 241 245 234 234 226 228 254 267 266 272 278 268 268 270 283 275 236 270 263 229 201 218 213 212
329 327 326 327 323 315 310 294 281 269 265 266 269 265 257 264 265 254 234 233 230 231 233 236 249 239 242 259 293 298 289 265 261 270 268 241 270 271 275 250 234 232 232 221 221
329 328 327 323 322 322 317 307 298 275 260 243 256 246 277 259 243 257 240 233 223 230 225 236 233 222 242 227 268 225 255 263 271 255 266 221 269 267 278 256 231 229 247 260 235
323 319 320 322 322 322 318 316 307 256 242 215 227 259 246 231 241 245 244 232 226 226 232 224 211 193 206 169 221 226 240 245 254 252 251 268 270 275 278 246 228 235 252 248 232
325 322 316 311 315 322 324 334 357 357 203 209 204 204 104 224 248 238 243 210 208 223 206 194 199 212 213 219 228 243 250 252 257 262 250 254 264 260 269 236 229 237 251 256 249
321 319 319 316 309 315 313 318 357 327 293 264 255 244 246 254 293 250 225 161 182 199 176 201 220 213 225 221 221 225 247 255 270 271 268 279 273 255 245 231 228 233 249 250 209
322 319 316 315 311 308 272 308 345 340 264 278 246 238 229 246 240 254 209 199 168 193 201 207 210 209 209 218 214 224 227 245 251 274 268 272 280 271 274 240 263 269 259 252 207
321 318 316 311 308 285 299 305 321 353 286 269 212 244 212 223 255 233 226 197 208 198 208 232 215 206 212 220 213 233 224 237 248 258 258 159 268 290 247 239 233 279 248 204 188
321 318 315 302 290 289 302 289 322 141 300 225 217 211 203 188 135 209 221 204 219 174 178 206 188 215 222 216 215 236 222 237 251 246 237 276 216 259 285 280 282 232 191 187 185
322 320 315 297 274 297 297 321 329 133 247 297 52 358 153 212 228 119 183 198 212 227 215 210 196 209 222 226 215 236 250 250 261 241 242 249 179 278 225 221 246 129 189 184 180
323 318 306 287 273 309 305 334 213 208 318 49 353 341 324 184 230 257 189 188 185 194 215 210 217 225 198 212 224 208 194 243 266 210 225 226 225 252 252 236 203 169 165 176 178
326 318 302 278 276 280 357 57 222 247 252 307 350 338 37 18 337 222 252 198 209 195 182 205 217 209 209 203 206 221 199 194 198 200 199 224 212 247 221 260 204 168 165 172 180
333 329 318 337 237 177 211 209 210 354 322 337 350 356 353 353 342 332 220 220 201 199 169 197 226 230 203 207 187 205 218 203 166 223 85 215 268 355 119 104 124 144 154 169 177
337 335 7 353 166 189 116 234 297 327 315 332 349 354 331 336 324 355 301 279 230 212 215 223 199 231 216 197 223 218 153 180 202 204 224 276 214 222 166 173 152 149 166 171 178
343 334 13 161 159 160 194 230 259 275 327 331 313 315 311 321 309 330 280 27 23 245 212 248 71 313 207 203 203 180 218 223 177 180 192 208 247 210 194 177 169 177 175 176 179
335 328 339 159 103 262 286 240 307 268 308 294 286 279 297 336 302 295 261 315 358 347 271 203 148 242 243 292 206 210 184 210 221 217 207 172 246 252 213 167 169 174 176 178 181
327 289 354 177 203 123 310 279 261 279 278 256 260 280 287 295 279 303 282 339 334 348 352 319 215 263 324 183 234 202 207 203 182 119 195 184 239 230 65 170 172 157 171 178 181
338 328 339 307 154 175 249 267 268 295 296 270 288 286 280 292 257 255 275 306 329 322 345 321 249 209 216 221 178 192 206 190 186 189 171 206 170 158 159 170 153 167 174 177 180
343 293 346 315 314 304 277 288 294 304 255 277 277 265 254 282 289 253 259 296 327 292 2 2 250 210 220 243 245 206 207 199 198 193 192 189 178 191 177 174 178 177 173 171 179
316 336 340 292 296 306 306 314 317 309 301 297 298 329 321 253 261 282 259 267 285 301 349 346 293 261 217 229 237 250 263 207 208 190 144 162 206 187 186 184 169 177 172 178 183
313 316 304 275 292 8 252 333 291 301 293 286 311 317 295 292 291 289 205 207 237 278 301 290 331 336 219 215 233 240 239 225 202 193 149 168 196 157 176 165 179 180 180 184 188